This is the latest recevied weather packets stored in our database for station/object WY7EM. If no packets are shown the sender has not sent any weather packets the latest 10 day(s).
| Time | Temp. | Humidity | Pressure | Rain* | Wind** | Luminosity | Snow |
|---|---|---|---|---|---|---|---|
| 1778153715 | 12.22° C | 33% | 1019.8 hPa | 0 mm | - | 0 W/m² | - |
| 1778153412 | 11.67° C | 34% | 1019.8 hPa | 0 mm | - | 0 W/m² | - |
| 1778153109 | 11.11° C | 34% | 1019.8 hPa | 0 mm | - | 0 W/m² | - |
| 1778152806 | 11.67° C | 34% | 1019.8 hPa | 0 mm | - | 0 W/m² | - |
| 1778152503 | 12.22° C | 33% | 1019.7 hPa | 0 mm | - | 0 W/m² | - |
| 1778152199 | 12.22° C | 32% | 1019.8 hPa | 0 mm | - | 0 W/m² | - |
| 1778151895 | 12.78° C | 33% | 1019.7 hPa | 0 mm | - | 0 W/m² | - |
| 1778151592 | 12.22° C | 32% | 1019.7 hPa | 0 mm | - | 0 W/m² | - |
| 1778151289 | 12.22° C | 33% | 1019.7 hPa | 0 mm | - | 0 W/m² | - |
| 1778150986 | 11.67° C | 33% | 1019.9 hPa | 0 mm | - | 0 W/m² | - |
| 1778150683 | 12.22° C | 33% | 1020 hPa | 0 mm | - | 0 W/m² | - |
| 1778150378 | 12.22° C | 32% | 1019.8 hPa | 0 mm | - | 0 W/m² | - |
| 1778150076 | 12.78° C | 31% | 1019.9 hPa | 0 mm | - | 0 W/m² | - |
| 1778149771 | 12.22° C | 31% | 1019.7 hPa | 0 mm | - | 0 W/m² | - |
| 1778149468 | 12.78° C | 31% | 1019.8 hPa | 0 mm | - | 0 W/m² | - |
| 1778149165 | 12.78° C | 30% | 1019.6 hPa | 0 mm | - | 0 W/m² | - |
| 1778148860 | 12.78° C | 31% | 1019.6 hPa | 0 mm | - | 0 W/m² | - |
| 1778148557 | 12.78° C | 31% | 1019.7 hPa | 0 mm | - | 0 W/m² | - |
| 1778148254 | 13.33° C | 30% | 1019.5 hPa | 0 mm | - | 0 W/m² | - |
| 1778147953 | 13.33° C | 30% | 1019.6 hPa | 0 mm | - | 0 W/m² | - |
| 1778147649 | 13.89° C | 29% | 1019.6 hPa | 0 mm | - | 0 W/m² | - |
| 1778147347 | 13.33° C | 31% | 1019.8 hPa | 0 mm | - | 0 W/m² | - |
| 1778147043 | 12.78° C | 32% | 1019.7 hPa | 0 mm | - | 0 W/m² | - |
| 1778146740 | 12.22° C | 33% | 1019.8 hPa | 0 mm | - | 0 W/m² | - |
| 1778146438 | 12.22° C | 33% | 1019.7 hPa | 0 mm | - | 0 W/m² | - |
* Rain latest hour (hover to see other rain measurements)
** Current wind speed in m/s (hover to see current wind gust speed)